Total_Precipitation_Accumulation
1.04 1.12 1.48 1.43 1.42 1.52 1.69 1.84 2.07 2.09 1.84 1.73 1.75 1.74 1.84 2.18 2.23 2.13 2.11 2.27 2.73 3.33 3.78 3.91 3.90 3.79 3.79 3.65 3.01 2.50 2.22 2.21 2.20 2.20 2.09 2.01 2.06 2.25 2.34 2.49 2.55 1.91 1.75
0.90 1.10 1.33 1.31 1.31 1.50 1.68 1.75 1.83 1.88 1.79 1.70 1.63 1.67 1.86 2.15 2.15 2.02 2.01 2.19 2.52 3.03 3.36 3.30 3.24 3.10 2.97 2.78 2.46 2.30 2.27 2.33 2.48 2.52 2.59 2.39 2.42 2.50 2.40 2.42 2.54 1.87 1.77
0.94 0.98 1.04 1.19 1.13 1.29 1.46 1.51 1.59 1.73 1.82 1.79 1.59 1.64 1.86 2.07 2.20 2.23 2.24 2.26 2.46 2.89 3.16 3.08 2.82 2.71 2.58 2.47 2.26 2.21 2.22 2.45 2.80 3.01 3.26 2.41 1.92 2.41 2.38 2.35 2.09 1.70 1.64
0.65 0.69 0.82 1.04 1.10 1.14 1.27 1.36 1.41 1.50 1.63 1.66 1.58 1.57 1.73 1.96 2.16 2.32 2.38 2.32 2.42 2.74 3.13 3.05 2.87 2.72 2.57 2.36 2.23 2.26 2.33 2.60 2.90 3.27 3.06 2.11 1.47 1.83 2.06 2.02 1.76 1.47 1.45
0.52 0.64 0.91 1.06 1.07 1.05 1.12 1.24 1.30 1.40 1.47 1.55 1.54 1.59 1.70 1.94 2.17 2.28 2.30 2.31 2.36 2.56 2.79 2.92 2.68 2.38 2.28 2.20 2.28 2.40 2.55 2.83 3.06 2.94 2.18 2.12 2.03 1.96 1.81 1.74 1.66 1.45 1.36
0.61 0.68 0.89 1.05 1.00 1.02 1.08 1.12 1.23 1.34 1.47 1.60 1.60 1.61 1.77 1.98 2.17 2.26 2.10 2.06 2.18 2.29 2.42 2.51 2.33 2.06 2.07 2.23 2.39 2.48 2.70 2.94 2.90 2.16 1.75 1.81 1.70 1.83 1.83 1.76 1.59 1.44 1.35
0.54 0.68 0.87 0.98 0.89 0.91 0.95 1.05 1.25 1.38 1.52 1.67 1.69 1.70 1.80 2.05 2.26 2.30 2.12 2.24 2.22 2.26 2.32 2.23 2.16 2.13 2.33 2.41 2.46 2.48 2.73 2.88 2.28 1.82 1.86 1.94 1.66 1.71 2.00 2.00 1.71 1.44 1.21
0.52 0.62 0.83 0.91 0.84 0.87 1.01 1.14 1.26 1.39 1.50 1.66 1.69 1.65 1.70 1.99 2.22 2.15 2.11 2.23 2.12 2.20 2.21 2.07 1.96 2.00 2.22 2.40 2.39 2.45 2.59 2.49 1.81 1.54 1.66 1.78 1.51 1.69 2.12 2.12 1.89 1.68 1.38
0.60 0.65 0.75 0.82 0.83 0.91 1.07 1.29 1.42 1.46 1.59 1.68 1.65 1.62 1.73 1.83 2.01 2.05 2.05 2.11 2.09 2.12 1.94 1.85 1.92 1.89 1.99 2.27 2.31 2.42 2.49 2.39 1.79 1.60 1.43 1.59 1.50 1.77 2.13 2.04 1.83 1.75 1.52
0.76 0.79 0.77 0.77 0.81 0.87 1.02 1.41 1.63 1.66 1.73 1.78 1.78 1.76 1.94 1.99 1.95 1.93 1.82 1.93 1.96 1.90 1.84 1.89 1.93 1.93 2.01 2.27 2.49 2.57 2.48 2.08 1.68 1.58 1.54 1.48 1.60 1.97 2.22 2.08 1.95 1.88 1.73
0.99 1.05 0.95 0.95 0.90 1.00 1.10 1.36 1.65 1.74 1.86 2.04 2.05 2.08 2.36 2.52 2.26 2.21 1.92 2.08 2.07 2.06 2.09 2.16 2.18 2.20 2.18 2.39 2.73 2.70 2.26 1.93 2.04 1.73 1.61 1.59 1.86 2.24 2.35 2.31 2.22 2.15 2.05
1.22 1.07 1.08 1.17 1.11 1.24 1.28 1.50 2.01 2.03 2.16 2.38 2.43 2.32 2.62 2.72 2.69 2.26 2.33 2.62 2.68 2.70 2.68 2.77 2.90 2.76 2.36 2.27 2.73 2.96 2.31 2.14 2.11 1.80 1.62 1.78 2.07 2.40 2.45 2.46 2.24 2.19 2.17
1.33 1.20 1.34 1.43 1.52 1.61 1.88 1.69 1.90 2.29 2.51 2.61 2.70 2.81 2.90 2.57 2.44 2.36 2.57 2.92 3.03 3.02 2.94 3.05 3.26 2.94 2.72 2.76 2.95 2.97 2.57 2.39 2.21 1.87 2.03 2.22 2.41 2.74 2.81 2.62 2.39 2.25 2.12
1.89 1.88 1.84 1.98 2.17 2.21 2.01 2.00 1.93 2.03 2.22 2.54 2.79 2.69 2.78 2.89 2.86 2.69 2.78 2.82 2.92 3.05 3.30 3.15 3.26 3.31 3.22 2.95 2.87 2.99 2.80 2.61 2.49 2.45 2.68 2.71 2.69 2.96 3.15 2.91 2.63 2.43 2.27
2.68 2.83 2.78 2.72 2.65 2.73 2.73 2.59 2.20 2.34 2.27 2.34 2.75 2.79 2.78 2.95 3.03 2.96 2.86 2.99 2.72 2.80 3.16 3.42 3.25 3.32 3.39 3.19 2.94 2.88 2.92 2.76 2.73 2.64 2.80 2.92 2.69 2.71 2.98 3.00 2.88 2.68 2.56
3.46 3.95 3.71 3.52 3.27 3.19 3.20 3.13 3.06 2.76 2.64 2.46 2.74 2.86 2.94 3.11 3.17 3.13 2.96 2.98 2.67 2.63 2.90 3.16 3.17 3.35 3.33 3.28 2.91 2.67 2.66 2.83 2.81 2.62 2.71 2.96 2.83 2.50 2.57 2.89 3.12 3.14 2.96
4.11 4.71 4.48 4.34 4.31 4.09 3.97 3.59 3.17 2.96 2.77 2.93 3.11 3.21 3.22 3.22 3.34 3.28 3.16 2.96 2.84 2.92 3.04 3.04 3.11 3.46 3.26 3.11 2.94 2.85 2.78 2.82 2.70 2.59 2.62 2.79 2.52 2.35 2.31 2.44 2.80 3.11 3.38
4.29 4.75 5.12 4.77 5.15 5.08 4.83 4.34 3.78 3.52 3.46 3.38 3.33 3.45 3.23 3.17 3.18 3.35 3.06 2.80 2.97 3.16 3.28 3.26 3.23 3.41 3.46 3.54 3.42 3.21 2.95 2.86 2.35 2.27 2.32 2.39 2.50 2.13 2.26 2.48 2.62 2.77 3.29
4.58 5.11 5.61 5.79 5.89 5.49 5.15 4.74 4.42 4.19 3.97 3.56 3.16 3.03 2.88 2.66 2.50 2.59 2.51 2.50 2.57 2.76 2.75 2.56 2.91 3.15 3.35 3.54 3.29 3.11 2.74 2.63 2.39 2.24 2.29 2.04 2.12 2.18 2.23 2.33 2.54 2.58 3.07
4.68 5.52 5.97 6.13 5.75 5.35 4.99 4.54 4.36 4.06 3.76 3.42 2.99 2.69 2.46 2.39 2.17 2.24 2.06 2.05 2.25 2.52 2.61 2.71 2.91 2.85 2.78 2.91 2.59 2.58 2.50 2.30 2.31 2.27 2.10 1.99 1.94 1.93 2.10 2.29 2.53 2.21 2.71
4.74 5.66 6.04 5.86 5.30 4.85 4.43 3.98 3.66 3.37 3.16 3.04 2.72 2.36 2.26 2.20 2.17 2.37 2.07 2.25 2.27 2.39 2.45 2.41 2.52 2.48 2.23 2.36 2.75 2.67 2.33 2.15 2.18 2.09 2.00 2.06 1.85 1.90 2.12 2.34 2.55 2.62 2.38
4.09 4.82 5.13 4.83 4.22 3.63 3.38 3.29 3.18 3.13 2.80 2.57 2.45 2.36 2.07 2.06 2.05 2.06 2.17 1.95 2.00 2.17 2.14 2.15 2.43 2.39 2.09 2.17 2.58 2.80 2.63 2.65 2.40 1.82 1.81 1.97 1.96 2.02 2.12 2.17 2.51 2.78 2.68
3.54 3.52 3.64 3.55 3.08 2.75 2.68 2.72 2.71 2.86 2.66 2.38 2.24 2.12 1.88 1.79 1.74 1.82 1.85 1.91 2.03 1.96 2.05 2.11 2.17 2.30 2.22 2.04 2.11 2.65 2.63 2.51 2.32 2.06 1.79 1.80 1.96 2.20 2.21 2.30 2.30 2.43 2.53
2.65 2.46 2.46 2.55 2.39 2.35 2.28 2.34 2.24 2.11 2.10 2.01 1.99 1.92 1.83 1.70 1.64 1.53 1.60 1.70 1.87 1.87 2.11 1.87 1.94 2.16 2.24 2.02 2.03 2.14 2.17 2.25 2.36 2.16 1.83 1.69 1.74 1.85 2.03 2.03 2.19 2.35 2.41
1.77 1.79 1.97 2.23 2.27 2.17 2.13 2.27 2.29 2.01 1.86 1.77 1.80 1.88 1.79 1.66 1.55 1.42 1.48 1.65 1.80 1.84 1.91 1.91 2.14 2.10 2.01 1.99 1.99 2.06 2.13 2.15 2.06 2.11 2.03 1.80 1.70 1.60 1.72 1.92 2.14 2.34 2.30
1.20 1.32 1.53 1.95 2.15 2.02 1.98 2.04 2.02 1.95 1.89 1.78 1.71 1.73 1.70 1.65 1.62 1.60 1.53 1.66 1.68 1.71 1.76 1.84 2.00 2.00 1.99 2.04 1.93 1.88 2.05 2.14 2.11 2.18 2.06 1.83 1.70 1.51 1.52 1.69 2.04 2.35 2.45